Preview of NWS' New Version of Forecast
This preview is not operational and should not be used for support decisions.

Regional Weather Roundup (RWR)

Issued by National Weather Service (NWS)

                            
000
ASUS46 KPQR 211810
RWROR 

OREGON REGIONAL WEATHER ROUNDUP
NATIONAL WEATHER SERVICE PORTLAND OR
1100 AM PDT SAT SEP 21 2019

NOTE: "FAIR" INDICATES FEW OR NO CLOUDS BELOW 12,000 FEET WITH
NO SIGNIFICANT WEATHER AND/OR OBSTRUCTIONS TO VISIBILITY.

ORZ001>013-211900-
NORTHWEST OREGON

  
CITY           SKY/WX    TMP DP  RH WIND       PRES   REMARKS
ASTORIA        PTSUNNY   64  58  80 SE5       30.13F                  
6HR MIN TEMP:  58; 6HR MAX TEMP:  64; 6HR PCP:  0.03;                

TILLAMOOK      PTSUNNY   64  57  77 SW3       30.15F                  
NEWPORT        CLOUDY    63  59  88 CALM      30.17S                  
PORTLAND       PTSUNNY   65  55  70 CALM      30.15F                  
6HR MIN TEMP:  55; 6HR MAX TEMP:  65;                                

VANCOUVER WA   MOSUNNY   63  55  75 CALM      30.15F                  
6HR MIN TEMP:  52; 6HR MAX TEMP:  64;                                

SCAPPOOSE      PTSUNNY   63  57  81 SE5       30.15S                  
6HR MIN TEMP:  48; 6HR MAX TEMP:  63;                                

HILLSBORO      CLOUDY    61  55  81 CALM      30.15F                  
6HR MIN TEMP:  48; 6HR MAX TEMP:  62;                                

AURORA         PTSUNNY   63  55  75 CALM      30.16F                  
6HR MIN TEMP:  53; 6HR MAX TEMP:  64;                                

MCMINNVILLE    CLOUDY    63  55  75 CALM      30.15F                  
6HR MIN TEMP:  54; 6HR MAX TEMP:  63;                                

SALEM          SUNNY     65  55  70 CALM      30.14F                  
6HR MIN TEMP:  52; 6HR MAX TEMP:  64;                                

CORVALLIS      SUNNY     62  56  80 CALM      30.16F                  
EUGENE         MOSUNNY   64  54  69 CALM      30.15F                  
6HR MIN TEMP:  55; 6HR MAX TEMP:  65;                                

CRESWELL       SUNNY     59  55  88 CALM      30.14F                  
$$

ORZ021-028-211900-
SOUTHWEST OREGON

  
CITY           SKY/WX    TMP DP  RH WIND       PRES   REMARKS
NORTH BEND     SUNNY     65  58  78 N3        30.14F                  
6HR MIN TEMP:  54; 6HR MAX TEMP:  65;                                

BROOKINGS      SUNNY     74  53  48 CALM      30.07F                  
ROSEBURG       SUNNY     63  53  70 CALM      30.14F                  
6HR MIN TEMP:  51; 6HR MAX TEMP:  63;                                

SEXTON SUMMIT  SUNNY     57  50  77 VRB5      30.17S                  
6HR MIN TEMP:  46; 6HR MAX TEMP:  57; 6HR PCP: TRACE;                

GRANTS PASS    FAIR      59  52  77 CALM      30.18F                  
MEDFORD        SUNNY     60  48  64 VRB3      30.15F                  
6HR MIN TEMP:  48; 6HR MAX TEMP:  60;                                

$$

ORZ014>016-041-211900-
COLUMBIA GORGE

  
CITY           SKY/WX    TMP DP  RH WIND       PRES   REMARKS
TROUTDALE      PTSUNNY   63  54  72 CALM      30.16S                  
6HR MIN TEMP:  57; 6HR MAX TEMP:  64;                                

HOOD RIVER     SUNNY     66  52  59 W7        30.11F                  
THE DALLES     SUNNY     68  53  58 NW5       30.10F                  
6HR MIN TEMP:  52; 6HR MAX TEMP:  68;                                

$$

ORZ029>031-041-044-049-050-061>064-502-503-505>511-211900-
EASTERN OREGON

  
CITY           SKY/WX    TMP DP  RH WIND       PRES   REMARKS
MADRAS         SUNNY     61  45  55 MISG      30.16F                  
REDMOND        SUNNY     61  44  53 VRB3      30.16F                  
6HR MIN TEMP:  38; 6HR MAX TEMP:  61;                                

BEND           SUNNY     61  43  51 CALM      30.16F                  
PRINEVILLE     SUNNY     57  45  62 CALM      30.17F                  
KLAMATH FALLS  SUNNY     56  44  64 VRB6      30.19F                  
6HR MIN TEMP:  36; 6HR MAX TEMP:  56;                                

LAKEVIEW       SUNNY     57  40  52 CALM      30.21F                  
HERMISTON      SUNNY     69  50  50 VRB7      30.10F                  
6HR MIN TEMP:  51; 6HR MAX TEMP:  69;                                

PENDLETON      SUNNY     67  46  47 W12G17    30.11F                  
6HR MIN TEMP:  48; 6HR MAX TEMP:  67;                                

JOHN DAY       SUNNY     58  47  66 CALM      30.17F                  
MEACHAM        SUNNY     60  42  51 VRB3      30.15S                  
6HR MIN TEMP:  31; 6HR MAX TEMP:  60;                                

LA GRANDE      SUNNY     58  46  64 CALM      30.15F                  
6HR MIN TEMP:  38; 6HR MAX TEMP:  58;                                

BAKER CITY     SUNNY     63  44  50 E3        30.16F                  
6HR MIN TEMP:  35; 6HR MAX TEMP:  63;                                

BURNS          SUNNY     54  44  69 VRB3      30.21F                  
6HR MIN TEMP:  34; 6HR MAX TEMP:  54;                                

ROME             N/A     59  41  51 VRB5      30.19F                  
6HR MIN TEMP:  40; 6HR MAX TEMP:  59;                                

ONTARIO        SUNNY     65  46  50 CALM      30.16F                  
6HR MIN TEMP:  47; 6HR MAX TEMP:  66;                                

$$